sat.trackr.live / text

‹ back to catalog

COSMOS 2514 (751)

NORAD 41330 · 2016-008A

PAYLOAD ACTIVE UNKNOWN

§ Identity

Operator
Country
CIS
Launch date
2016-02-07
Launch site
PLMSC
Launch vehicle
Mass (kg)
RCS (m²)
11.29

Purposes: nav

External: N2YO · Heavens-Above · Gunter

§ Orbital elements

Epoch: 2026-05-24T19:43:56.017632Z

Period
675.73 min
Inclination
65.0361°
Eccentricity
0.0010413
Mean motion
2.13102641 rev/d
Perigee alt
19,103.3 km
Apogee alt
19,156.4 km
Semi-major
25,508.0 km
B*
0.0000e+0
RAAN
313.8080°
Arg perigee
196.8180°
Mean anomaly
163.1436°
Rev number
8,012

§ Raw data

COSMOS 2514 (751)1 41330U 16008A   26144.82217613 -.00000049  00000+0  00000+0 0  99952 41330  65.0361 313.8080 0010413 196.8180 163.1436  2.13102641 80124

JSON: /api/v1/satellites/41330 · /tle

For live sub-satellite position, see the globe view (requires WebGL).

§ Visibility from observer

Set your observer location to see the next 7 days of passes ≥ 10°. The values pass through the URL so the page stays shareable.

No JS? Fill the form by hand. The geolocation button needs JavaScript.